TimeAKST,TemperatureF,Dew PointF,Humidity,Sea Level PressureIn,VisibilityMPH,Wind Direction,Wind SpeedMPH,Gust SpeedMPH,PrecipitationIn,Events,Conditions,WindDirDegrees,DateUTC
12:16 AM,32.0,30.2,93,29.86,4.0,NNE,8.1,-,N/A,,Overcast,30,2013-01-18 09:16:00
12:36 AM,32.0,30.2,93,29.86,3.0,NNE,8.1,-,N/A,,Overcast,30,2013-01-18 09:36:00
12:56 AM,32.0,30.2,93,29.86,2.5,NNE,9.2,19.6,N/A,,Overcast,30,2013-01-18 09:56:00
1:16 AM,30.2,30.2,100,29.84,2.5,ENE,8.1,17.3,N/A,,Overcast,70,2013-01-18 10:16:00
1:36 AM,30.2,30.2,100,29.83,2.0,NNE,8.1,-,N/A,,Overcast,30,2013-01-18 10:36:00
1:56 AM,30.2,30.2,100,29.84,2.0,NE,5.8,17.3,N/A,,Overcast,40,2013-01-18 10:56:00
2:16 AM,30.2,30.2,100,29.84,2.0,NE,9.2,-,N/A,,Overcast,40,2013-01-18 11:16:00
2:56 AM,30.2,30.2,100,29.82,2.0,NNE,10.4,17.3,N/A,,Overcast,30,2013-01-18 11:56:00
3:36 AM,30.2,30.2,100,29.82,4.0,NE,12.7,20.7,N/A,,Overcast,40,2013-01-18 12:36:00
3:56 AM,32.0,30.2,93,29.82,3.0,NE,12.7,20.7,N/A,,Overcast,40,2013-01-18 12:56:00
4:16 AM,32.0,30.2,93,29.82,3.0,NNE,10.4,16.1,N/A,,Overcast,30,2013-01-18 13:16:00
4:36 AM,32.0,32.0,100,29.81,5.0,NNE,13.8,20.7,N/A,,Overcast,30,2013-01-18 13:36:00
4:56 AM,32.0,32.0,100,29.81,5.0,NE,9.2,23.0,N/A,,Overcast,40,2013-01-18 13:56:00
5:16 AM,32.0,32.0,100,29.80,6.0,NE,9.2,18.4,N/A,,Overcast,40,2013-01-18 14:16:00
5:36 AM,33.8,32.0,93,29.80,7.0,NE,13.8,19.6,N/A,,Overcast,40,2013-01-18 14:36:00
5:56 AM,33.8,33.8,100,29.79,8.0,NE,13.8,25.3,N/A,,Overcast,40,2013-01-18 14:56:00
6:16 AM,33.8,33.8,100,29.78,8.0,NE,11.5,19.6,N/A,,Overcast,40,2013-01-18 15:16:00
6:36 AM,33.8,33.8,100,29.79,7.0,NE,13.8,19.6,N/A,,Overcast,40,2013-01-18 15:36:00
6:56 AM,33.8,33.8,100,29.79,7.0,NNE,9.2,23.0,N/A,,Overcast,30,2013-01-18 15:56:00
7:16 AM,33.8,33.8,100,29.78,7.0,NE,10.4,19.6,N/A,,Overcast,40,2013-01-18 16:16:00
7:36 AM,33.8,33.8,100,29.77,9.0,NE,9.2,19.6,N/A,,Overcast,40,2013-01-18 16:36:00
7:56 AM,33.8,32.0,93,29.77,10.0,NE,12.7,20.7,N/A,,Overcast,40,2013-01-18 16:56:00
8:16 AM,33.8,33.8,100,29.78,9.0,NE,11.5,20.7,N/A,,Overcast,40,2013-01-18 17:16:00
8:36 AM,33.8,33.8,100,29.77,10.0,NNE,10.4,17.3,N/A,,Overcast,30,2013-01-18 17:36:00
8:56 AM,35.6,33.8,93,29.77,10.0,NE,8.1,21.9,N/A,,Overcast,40,2013-01-18 17:56:00
9:16 AM,35.6,35.6,100,29.77,10.0,NNE,13.8,20.7,N/A,,Overcast,30,2013-01-18 18:16:00
9:36 AM,35.6,35.6,100,29.77,10.0,NE,12.7,21.9,N/A,,Overcast,40,2013-01-18 18:36:00
9:56 AM,35.6,35.6,100,29.77,10.0,NNE,9.2,25.3,N/A,,Overcast,30,2013-01-18 18:56:00
10:16 AM,35.6,35.6,100,29.76,10.0,NE,10.4,18.4,N/A,,Overcast,40,2013-01-18 19:16:00
10:36 AM,35.6,35.6,100,29.75,10.0,NE,9.2,23.0,N/A,,Overcast,40,2013-01-18 19:36:00
10:56 AM,37.4,35.6,93,29.75,10.0,NE,11.5,18.4,N/A,,Overcast,50,2013-01-18 19:56:00
11:16 AM,37.4,35.6,93,29.74,10.0,NE,12.7,19.6,N/A,,Overcast,40,2013-01-18 20:16:00
11:36 AM,37.4,35.6,93,29.74,10.0,ENE,10.4,20.7,N/A,,Overcast,60,2013-01-18 20:36:00
11:56 AM,37.4,35.6,93,29.74,10.0,NE,10.4,25.3,N/A,,Overcast,40,2013-01-18 20:56:00
12:16 PM,37.4,35.6,93,29.74,10.0,NE,11.5,24.2,N/A,,Overcast,50,2013-01-18 21:16:00
12:36 PM,37.4,35.6,93,29.74,10.0,NE,11.5,23.0,N/A,,Overcast,50,2013-01-18 21:36:00
12:56 PM,37.4,35.6,93,29.72,10.0,NE,13.8,23.0,N/A,,Overcast,40,2013-01-18 21:56:00
1:16 PM,37.4,35.6,93,29.71,10.0,NE,12.7,28.8,N/A,,Overcast,40,2013-01-18 22:16:00
1:36 PM,37.4,35.6,93,29.71,10.0,NE,10.4,32.2,N/A,,Overcast,40,2013-01-18 22:36:00
1:56 PM,37.4,33.8,87,29.71,10.0,NE,12.7,20.7,N/A,,Overcast,40,2013-01-18 22:56:00
2:16 PM,37.4,35.6,93,29.69,10.0,NE,6.9,23.0,N/A,,Overcast,40,2013-01-18 23:16:00
2:36 PM,37.4,35.6,93,29.68,10.0,NE,11.5,27.6,N/A,,Overcast,50,2013-01-18 23:36:00
2:56 PM,37.4,35.6,93,29.68,10.0,NE,13.8,24.2,N/A,,Overcast,40,2013-01-18 23:56:00
3:16 PM,37.4,33.8,87,29.66,10.0,NE,13.8,27.6,N/A,,Overcast,40,2013-01-19 00:16:00
3:36 PM,37.4,33.8,87,29.64,10.0,NE,13.8,25.3,N/A,,Overcast,40,2013-01-19 00:36:00
3:56 PM,37.4,33.8,87,29.63,10.0,NE,13.8,27.6,N/A,,Overcast,50,2013-01-19 00:56:00
4:16 PM,37.4,33.8,87,29.64,10.0,NE,13.8,23.0,N/A,,Overcast,40,2013-01-19 01:16:00
4:36 PM,37.4,35.6,93,29.63,8.0,NE,10.4,23.0,N/A,,Overcast,40,2013-01-19 01:36:00
4:56 PM,35.6,35.6,100,29.62,4.0,ENE,11.5,21.9,N/A,,Overcast,60,2013-01-19 01:56:00
5:16 PM,35.6,35.6,100,29.61,4.0,NE,11.5,17.3,N/A,,Overcast,40,2013-01-19 02:16:00
5:36 PM,35.6,35.6,100,29.60,4.0,NE,18.4,26.5,N/A,,Overcast,40,2013-01-19 02:36:00
5:56 PM,35.6,35.6,100,29.59,3.0,NE,10.4,20.7,N/A,,Overcast,40,2013-01-19 02:56:00
6:16 PM,35.6,35.6,100,29.58,3.0,NE,12.7,26.5,N/A,,Overcast,40,2013-01-19 03:16:00
6:36 PM,35.6,35.6,100,29.57,3.0,ENE,15.0,27.6,N/A,,Overcast,60,2013-01-19 03:36:00
6:56 PM,35.6,35.6,100,29.55,3.0,NE,16.1,32.2,N/A,,Overcast,40,2013-01-19 03:56:00
7:16 PM,37.4,35.6,93,29.55,3.0,NE,13.8,29.9,N/A,,Overcast,40,2013-01-19 04:16:00
7:36 PM,37.4,35.6,93,29.55,3.0,NE,16.1,29.9,N/A,,Overcast,50,2013-01-19 04:36:00
7:56 PM,37.4,35.6,93,29.55,3.0,NE,15.0,25.3,N/A,,Overcast,50,2013-01-19 04:56:00
8:16 PM,37.4,35.6,93,29.53,5.0,NE,13.8,33.4,N/A,,Overcast,50,2013-01-19 05:16:00
8:36 PM,37.4,35.6,93,29.54,4.0,NE,15.0,27.6,N/A,,Overcast,50,2013-01-19 05:36:00
8:56 PM,37.4,35.6,93,29.54,6.0,NE,17.3,29.9,N/A,,Overcast,50,2013-01-19 05:56:00
9:16 PM,37.4,35.6,93,29.53,5.0,NE,13.8,24.2,N/A,,Overcast,50,2013-01-19 06:16:00
9:36 PM,37.4,35.6,93,29.52,5.0,NE,15.0,26.5,N/A,,Overcast,50,2013-01-19 06:36:00
9:56 PM,37.4,35.6,93,29.52,5.0,NE,12.7,24.2,N/A,,Overcast,50,2013-01-19 06:56:00
10:16 PM,37.4,35.6,93,29.51,5.0,NE,15.0,28.8,N/A,,Overcast,50,2013-01-19 07:16:00
10:36 PM,37.4,35.6,93,29.49,6.0,NE,11.5,25.3,N/A,,Overcast,50,2013-01-19 07:36:00
10:56 PM,37.4,35.6,93,29.49,5.0,NE,10.4,29.9,N/A,,Overcast,50,2013-01-19 07:56:00
11:16 PM,37.4,35.6,93,29.49,8.0,NE,16.1,32.2,N/A,,Overcast,40,2013-01-19 08:16:00
11:36 PM,37.4,35.6,93,29.48,8.0,NE,15.0,25.3,N/A,,Overcast,50,2013-01-19 08:36:00
11:56 PM,35.6,35.6,100,29.47,5.0,ENE,13.8,26.5,N/A,,Overcast,70,2013-01-19 08:56:00